Regional Weather Roundup
Issued by NWS

Home | Current Version | Previous Version | Text Only | Print | Product List | Glossary Off
Versions: 1 2 3 4 5 6 7 8 9 10 11 12 13 14 15 16 17 18 19 20 21 22 23 24 25 26 27 28 29 30 31 32 33 34 35 36 37 38 39 40 41 42 43 44 45 46 47 48 49 50

000
ASUS43 KFSD 231902
RWRSD

WEATHER ROUNDUP FOR SOUTH DAKOTA
NATIONAL WEATHER SERVICE SIOUX FALLS SD
200 PM CDT WED APR 23 2014

NOTE: "FAIR" INDICATES FEW OR NO CLOUDS BELOW 12,000 FEET WITH NO
SIGNIFICANT WEATHER AND/OR OBSTRUCTIONS TO VISIBILITY.


SDZ001>005-009-010-012>017-232000-
NORTHWEST AND NORTH CENTRAL SOUTH DAKOTA

CITY           SKY/WX    TMP DP  RH WIND       PRES   REMARKS
BUFFALO          N/A     52  38  58 NW37G44   29.52R
FAITH            N/A     61  43  51 VRB3      29.48F
MOBRIDGE       LGT RAIN  56  44  64 S17       29.52F
$$

SDZ012>016-024>037-041>051-057-063-072>074-232000-
SOUTHWEST AND SOUTH CENTRAL SOUTH DAKOTA

CITY           SKY/WX    TMP DP  RH WIND       PRES   REMARKS
RAPID CTY ARPT CLOUDY    65  43  44 NW17G23   29.56R
PIERRE         CLOUDY    68  43  40 E18       29.48F
CUSTER         MOSUNNY   58  26  29 W20G29    29.61R
ELLSWORTH AFB  CLOUDY    61  43  51 N21G28    29.56R
PHILIP         CLOUDY    67  48  50 SE9       29.51R
PINE RIDGE     CLOUDY    66  28  24 W20G32    29.58F
WINNER         FAIR      72  43  35 SW9       29.50F
$$

SDZ004>011-016>023-039-040-232000-
NORTHEAST SOUTH DAKOTA

CITY           SKY/WX    TMP DP  RH WIND       PRES   REMARKS
ABERDEEN       CLOUDY    54  37  52 SE31G44   29.64F
WATERTOWN      CLOUDY    48  36  63 SE20G33   29.71F
SISSETON         N/A     43  39  86 SE32G39   29.75F
$$

SDZ017-020-022-023-036>040-048>070-232000-
SOUTHEAST SOUTH DAKOTA

CITY           SKY/WX    TMP DP  RH WIND       PRES   REMARKS
SIOUX FALLS    PTSUNNY   61  41  47 SE28G38   29.71F
HURON          MOSUNNY   65  39  38 SE23G35   29.60F
CHAMBERLAIN      N/A     74  43  32 S23G31    29.51F
MITCHELL       MOSUNNY   68  41  37 SE30G41   29.59F
YANKTON        MOSUNNY   64  39  39 SE28G40   29.66F
$$

ABBREVIATIONS USED IN REMARKS
   TC - TEMPERATURE IN CELSIUS
  WCI - WIND CHILL INDEX
   HX - HEAT INDEX
  VSB - VISIBILITY




USA.gov is the U.S. government's official web portal to all federal, state and local government web resources and services.